Regional Weather Roundup
Issued by NWS

Home | Current Version | Previous Version | Graphics & Text | Print | Product List | Glossary On
Versions: 1 2 3 4 5 6 7 8 9 10 11 12 13 14 15 16 17 18 19 20 21 22 23 24 25 26 27 28 29 30 31 32 33 34 35 36 37 38 39 40 41 42 43 44 45 46 47 48 49 50
496
ASUS44 KMEG 241110
RWRTN
TENNESSEE HOURLY STATE WEATHER ROUNDUP
NATIONAL WEATHER SERVICE MEMPHIS TN
600 AM CDT SAT JUN 24 2017

TNZ002-004-019-021-049-052-054-088>092-241200-
WEST TENNESSEE

CITY           SKY/WX    TMP DP  RH WIND       PRES   REMARKS
MEMPHIS INTL   CLOUDY    70  66  87 N7        30.03R
NWS MEMPHIS      N/A     68 N/A N/A MISG        N/A
JACKSON        PTCLDY    69  66  90 N5        30.02R
SOMERVILLE     CLEAR     70  68  94 CALM      30.01R
COVINGTON      CLEAR     68  64  88 N5        30.02R
UNION CITY     CLEAR     66  61  82 N6        30.02R
BOLIVAR        PTCLDY    68  66  94 CALM      30.01R
PARIS          CLEAR     64  63  94 N6        30.02R
HUNTINGDON     CLEAR     68  63  83 N5        30.01R
LEXINGTON      PTCLDY    70  68  94 N8        30.00R
SELMER         CLOUDY    72  70  94 N6        30.00R
SAVANNAH       CLOUDY    73  72  94 CALM      29.99R
$$

TNZ008-025-027-028-033-062-065-066-241200-
NORTH MIDDLE TENNESSEE

CITY           SKY/WX    TMP DP  RH WIND       PRES   REMARKS
NASHVILLE      CLOUDY    71  66  84 NW5       29.98R
PORTLAND       CLEAR     68  66  94 CALM      29.98R
CLARKSVILLE    CLOUDY    68  65  90 NW8       30.00R
SMYRNA         MOCLDY    70  68  93 NW5       29.98R
COOKEVILLE     MOCLDY    72  72 100 NW5       29.96R
GALLATIN       CLEAR     70  68  94 CALM      30.00R
CROSSVILLE     CLOUDY    71  69  93 N5        30.00R
$$

TNZ061-075-076-078-094-096-097-241200-
SOUTH MIDDLE TENNESSEE

CITY           SKY/WX    TMP DP  RH WIND       PRES   REMARKS
TULLAHOMA        N/A     72  72 100 NW6       29.99R
WINCHESTER     CLOUDY    73  72  94 CALM        N/A
COLUMBIA       MOCLDY    72  72 100 CALM      29.97R
SHELBYVILLE    CLOUDY    72  70  94 NW6       29.98R
$$

TNZ017-018-042-046-047-241200-
NORTHEAST TENNESSEE

CITY           SKY/WX    TMP DP  RH WIND       PRES   REMARKS
TRI CITIES     CLOUDY    67  66  97 CALM      29.98R
ELIZABETHTON   CLOUDY    66  64  94 CALM      29.99R
$$

TNZ012-013-036-069-073-074-241200-
CENTRAL EAST TENNESSEE

CITY           SKY/WX    TMP DP  RH WIND       PRES   REMARKS
KNOXVILLE      LGT RAIN  72  71  97 SW9       29.94R
OAK RIDGE      LGT RAIN  68  66  93 VRB3      29.96S
DOWNTOWN KNOXV CLOUDY    73  73 100 SW5       29.94R
MORRISTOWN     CLOUDY    68  68 100 CALM      29.96R
JACKSBORO      CLOUDY    70  70 100 CALM      29.99R
$$

TNZ083-085-099-241200-
SOUTHEAST TENNESSEE

CITY           SKY/WX    TMP DP  RH WIND       PRES   REMARKS
CHATTANOOGA    CLOUDY    74  72  93 S3        29.94S FOG
$$

SKY/WX REPORTED AS FAIR MEANS FEW OR NO CLOUDS BELOW
12 THOUSAND FEET.





USA.gov is the U.S. government's official web portal to all federal, state and local government web resources and services.